FW8022 Weather Reports


Display with metric or nautical units.
time (UTC)temp
F
wind
direction
speed
MPH
gust
MPH
rain 1hr
in
rain 24hr
in
rain mn
in
humidity
%
barometer
mb
20260507123536 52 290 2.0 6.0 0.00 0.00 0.00 91 1017.6
20260507123053 52 273 1.0 8.0 0.00 0.00 0.00 91 1017.5
20260507122536 52 287 1.0 8.0 0.00 0.00 0.00 91 1017.6
20260507122036 52 288 2.0 6.0 0.00 0.00 0.00 91 1017.6
20260507121548 52 332 2.0 4.0 0.00 0.00 0.00 91 1017.6
20260507121036 52 276 1.0 4.0 0.00 0.00 0.00 91 1017.6
20260507120536 52 250 1.0 4.0 0.00 0.00 0.00 91 1017.5
20260507120048 52 294 1.0 3.0 0.00 0.00 0.00 91 1017.5
20260507115536 52 291 1.0 4.0 0.00 0.00 0.00 91 1017.7
20260507115035 52 285 1.0 4.0 0.00 0.00 0.00 91 1017.6
20260507114547 52 288 1.0 4.0 0.00 0.00 0.00 91 1017.7
20260507114036 52 306 2.0 4.0 0.00 0.00 0.00 91 1017.7
20260507113536 52 294 1.0 4.0 0.00 0.00 0.00 91 1017.8
20260507113044 52 258 1.0 4.0 0.00 0.00 0.00 91 1017.7
20260507112535 52 263 1.0 4.0 0.00 0.00 0.00 91 1017.8
20260507112036 52 240 1.0 4.0 0.00 0.00 0.00 91 1017.8
20260507111549 52 269 2.0 4.0 0.00 0.00 0.00 91 1017.9
20260507111035 52 213 2.0 4.0 0.00 0.00 0.00 91 1017.9
20260507110535 52 244 1.0 5.0 0.00 0.00 0.00 91 1017.9
20260507110042 52 286 1.0 6.0 0.00 0.00 0.00 91 1017.8
20260507105536 52 284 2.0 6.0 0.00 0.00 0.00 91 1017.9
20260507105040 52 248 1.0 3.0 0.00 0.00 0.00 91 1017.8
20260507104555 52 286 1.0 7.0 0.00 0.00 0.00 91 1017.8
20260507104038 52 272 2.0 7.0 0.00 0.00 0.00 91 1017.8
20260507103535 52 281 1.0 5.0 0.00 0.00 0.00 91 1017.9
20260507103045 52 268 1.0 5.0 0.00 0.00 0.00 91 1017.8
20260507102536 52 279 1.0 4.0 0.00 0.00 0.00 91 1017.9
20260507102038 52 287 1.0 6.0 0.00 0.00 0.00 91 1017.9
20260507101549 53 228 2.0 6.0 0.00 0.00 0.00 91 1018.0
20260507101040 52 242 1.0 4.0 0.00 0.00 0.00 91 1017.8
20260507100537 52 290 2.0 5.0 0.00 0.00 0.00 91 1017.8
20260507100045 52 271 1.0 5.0 0.00 0.00 0.00 91 1017.8
20260507095538 52 288 1.0 4.0 0.00 0.00 0.00 91 1017.8
20260507095039 52 333 1.0 4.0 0.00 0.00 0.00 91 1017.9
20260507094547 53 267 2.0 4.0 0.00 0.00 0.00 91 1017.9
20260507094037 52 225 1.0 3.0 0.00 0.00 0.00 91 1018.0
20260507093537 52 237 1.0 3.0 0.00 0.00 0.00 91 1018.0
20260507093058 52 279 0.0 3.0 0.00 0.00 0.00 91 1018.1
20260507092537 52 240 1.0 4.0 0.00 0.00 0.00 91 1018.1
20260507092038 52 246 1.0 4.0 0.00 0.00 0.00 91 1018.2
20260507091554 52 277 2.0 4.0 0.00 0.00 0.00 91 1018.2
20260507091038 52 244 1.0 5.0 0.00 0.00 0.00 91 1018.2
20260507090536 52 244 1.0 6.0 0.00 0.00 0.00 91 1018.2
20260507090046 52 271 1.0 6.0 0.00 0.00 0.00 91 1018.2
20260507085538 53 279 2.0 5.0 0.00 0.00 0.00 91 1018.2
20260507085042 52 255 1.0 3.0 0.00 0.00 0.00 91 1018.2
20260507084551 52 242 1.0 3.0 0.00 0.00 0.00 91 1018.3
20260507084038 52 242 1.0 5.0 0.00 0.00 0.00 91 1018.4
20260507083538 53 259 2.0 5.0 0.00 0.00 0.00 91 1018.5
20260507083044 53 294 2.0 5.0 0.00 0.00 0.00 91 1018.4
20260507082537 53 0 1.0 5.0 0.00 0.00 0.00 91 1018.5
20260507082041 53 252 2.0 5.0 0.00 0.00 0.00 91 1018.5
20260507081543 53 297 1.0 6.0 0.00 0.00 0.00 91 1018.5
20260507081037 53 0 1.0 6.0 0.00 0.00 0.00 91 1018.5
20260507080538 53 283 1.0 4.0 0.00 0.00 0.00 92 1018.5
20260507080047 52 301 1.0 4.0 0.00 0.00 0.00 92 1018.5
20260507075537 52 264 1.0 5.0 0.00 0.00 0.00 91 1018.5
20260507075041 52 294 1.0 6.0 0.00 0.00 0.00 91 1018.5
20260507074549 52 277 2.0 6.0 0.00 0.00 0.00 91 1018.5
20260507074038 53 245 2.0 4.0 0.00 0.00 0.00 92 1018.4
20260507073539 53 282 1.0 4.0 0.00 0.00 0.00 92 1018.5
20260507073052 53 283 1.0 4.0 0.00 0.00 0.00 92 1018.3
20260507072540 53 294 1.0 4.0 0.00 0.00 0.00 92 1018.4
20260507072040 53 238 1.0 4.0 0.00 0.00 0.00 92 1018.4
20260507071551 53 252 2.0 6.0 0.00 0.00 0.00 92 1018.4
20260507071038 53 246 2.0 6.0 0.00 0.00 0.00 92 1018.4
20260507070538 53 241 2.0 6.0 0.00 0.00 0.00 92 1018.4
20260507070051 53 264 2.0 6.0 0.00 0.00 0.00 92 1018.4
20260507065540 53 283 2.0 6.0 0.00 0.00 0.00 92 1018.4
20260507065037 53 287 1.0 6.0 0.00 0.00 0.00 92 1018.3
20260507064548 53 279 2.0 6.0 0.00 0.00 0.00 92 1018.3
20260507064038 53 294 1.0 4.0 0.00 0.00 0.00 92 1018.4
20260507063539 53 284 1.0 6.0 0.00 0.00 0.00 92 1018.4
20260507063049 53 279 2.0 6.0 0.00 0.00 0.00 91 1018.4
20260507062537 53 279 2.0 6.0 0.00 0.00 0.00 91 1018.5
20260507062037 53 246 1.0 6.0 0.00 0.00 0.00 92 1018.4
20260507061544 53 256 2.0 6.0 0.00 0.00 0.00 92 1018.4
20260507061037 53 244 2.0 6.0 0.00 0.00 0.00 92 1018.4
20260507060537 53 254 2.0 7.0 0.00 0.00 0.00 92 1018.4
20260507060051 53 275 1.0 7.0 0.00 0.00 0.00 91 1018.4
20260507055539 53 278 1.0 8.0 0.00 0.00 0.00 91 1018.4
20260507055037 53 271 2.0 8.0 0.00 0.00 0.00 91 1018.3
20260507054547 53 292 2.0 7.0 0.00 0.00 0.00 91 1018.4
20260507054037 53 259 2.0 5.0 0.00 0.00 0.00 91 1018.4
20260507053538 53 289 1.0 4.0 0.00 0.00 0.00 91 1018.4
20260507053054 53 280 1.0 7.0 0.00 0.00 0.00 91 1018.4
20260507052538 53 321 3.0 7.0 0.00 0.00 0.00 91 1018.5
20260507052038 53 329 3.0 7.0 0.00 0.00 0.00 91 1018.5
20260507051548 53 280 2.0 7.0 0.00 0.00 0.00 91 1018.5
20260507051041 53 275 3.0 7.0 0.00 0.00 0.00 91 1018.6
20260507050539 53 244 2.0 7.0 0.00 0.00 0.00 91 1018.5
20260507050044 53 275 3.0 9.0 0.00 0.00 0.00 91 1018.6
20260507045541 54 268 3.0 9.0 0.00 0.00 0.00 91 1018.5
20260507045038 54 302 2.0 7.0 0.00 0.00 0.00 91 1018.6
20260507044555 54 289 2.0 7.0 0.00 0.00 0.00 91 1018.6
20260507044037 54 279 3.0 7.0 0.00 0.00 0.00 91 1018.6
20260507043537 54 275 2.0 8.0 0.00 0.00 0.00 91 1018.5
20260507043048 54 269 2.0 8.0 0.00 0.00 0.00 91 1018.5
20260507042537 54 284 2.0 8.0 0.00 0.00 0.00 90 1018.5
20260507042040 54 346 2.0 8.0 0.00 0.00 0.00 90 1018.6
20260507041545 54 325 2.0 8.0 0.00 0.00 0.00 91 1018.5
20260507041038 54 320 3.0 8.0 0.00 0.00 0.00 90 1018.5
20260507040541 54 280 3.0 8.0 0.00 0.00 0.00 90 1018.5
20260507040045 54 295 2.0 8.0 0.00 0.00 0.00 90 1018.5
20260507035537 54 297 2.0 7.0 0.00 0.00 0.00 90 1018.5
20260507035037 54 301 2.0 7.0 0.00 0.00 0.00 90 1018.4
20260507034545 54 257 2.0 10.0 0.00 0.00 0.00 90 1018.4
20260507034037 54 301 2.0 10.0 0.00 0.00 0.00 90 1018.3
20260507033539 54 284 3.0 8.0 0.00 0.00 0.00 90 1018.4
20260507033044 54 323 3.0 9.0 0.00 0.00 0.00 90 1018.4
20260507032539 54 330 2.0 9.0 0.00 0.00 0.00 90 1018.3
20260507032040 54 295 3.0 9.0 0.00 0.00 0.00 90 1018.3
20260507031549 54 299 2.0 7.0 0.00 0.00 0.00 90 1018.2
20260507031038 55 313 2.0 7.0 0.00 0.00 0.00 89 1018.2
20260507030538 55 270 2.0 6.0 0.00 0.00 0.00 89 1018.2
20260507030050 55 282 2.0 10.0 0.00 0.00 0.00 89 1018.1
20260507025536 55 266 2.0 10.0 0.00 0.00 0.00 89 1018.1
20260507025038 55 279 3.0 8.0 0.00 0.00 0.00 89 1018.1
20260507024549 55 292 1.0 8.0 0.00 0.00 0.00 89 1018.1
20260507024038 55 315 2.0 7.0 0.00 0.00 0.00 89 1018.0
20260507023538 55 297 2.0 8.0 0.00 0.00 0.00 89 1018.1
20260507023050 55 276 3.0 8.0 0.00 0.00 0.00 88 1018.1
20260507022537 55 284 3.0 8.0 0.00 0.00 0.00 88 1018.1
20260507022038 55 286 2.0 7.0 0.00 0.00 0.00 88 1018.1
20260507021551 56 275 2.0 7.0 0.00 0.00 0.00 87 1018.0
20260507021040 56 290 1.0 11.0 0.00 0.00 0.00 87 1018.1
20260507020537 56 265 2.0 11.0 0.00 0.00 0.00 87 1018.1
20260507020051 56 301 4.0 11.0 0.00 0.00 0.00 87 1018.2
20260507015536 56 272 2.0 9.0 0.00 0.00 0.00 87 1018.2
20260507015037 56 330 4.0 8.0 0.00 0.00 0.00 86 1018.2
20260507014554 56 248 3.0 11.0 0.00 0.00 0.00 86 1018.3
20260507014037 57 294 3.0 11.0 0.00 0.00 0.00 86 1018.2
20260507013541 57 321 3.0 10.0 0.00 0.00 0.00 86 1018.2
20260507013056 57 290 4.0 10.0 0.00 0.00 0.00 85 1018.3
20260507012537 57 286 4.0 10.0 0.00 0.00 0.00 85 1018.2
20260507012037 57 308 5.0 10.0 0.00 0.00 0.00 85 1018.2
20260507011545 57 284 3.0 9.0 0.00 0.00 0.00 85 1018.2
20260507011037 57 299 4.0 9.0 0.00 0.00 0.00 84 1018.3
20260507010537 57 314 3.0 9.0 0.00 0.00 0.00 85 1018.2
20260507010053 57 275 4.0 9.0 0.00 0.00 0.00 85 1018.2
20260507005538 57 300 3.0 8.0 0.00 0.00 0.00 85 1018.2
20260507005037 57 335 3.0 11.0 0.00 0.00 0.00 85 1018.2
20260507004540 57 287 2.0 11.0 0.00 0.00 0.00 85 1018.2
20260507004037 57 289 4.0 11.0 0.00 0.00 0.00 85 1018.2
20260507003540 57 268 2.0 8.0 0.00 0.00 0.00 85 1018.2
20260507003047 57 340 3.0 10.0 0.00 0.00 0.00 86 1018.1
20260507002539 57 304 3.0 10.0 0.00 0.00 0.00 86 1018.2
20260507002037 57 295 4.0 10.0 0.00 0.00 0.00 85 1018.2
20260507001545 57 291 3.0 10.0 0.00 0.00 0.00 86 1018.3
20260507001036 57 294 4.0 10.0 0.00 0.00 0.00 85 1018.3
20260507000540 57 280 2.0 8.0 0.00 0.00 0.00 85 1018.3
20260507000051 57 5 3.0 8.0 0.00 0.00 0.00 85 1018.2
20260506235537 57 281 2.0 8.0 0.00 0.00 0.00 85 1018.3
20260506235036 57 289 3.0 8.0 0.00 0.00 0.00 85 1018.2
20260506234543 57 320 3.0 8.0 0.00 0.00 0.00 85 1018.2
20260506234039 57 323 2.0 10.0 0.00 0.00 0.00 85 1018.2
20260506233540 57 290 2.0 10.0 0.00 0.00 0.00 85 1018.3
20260506233042 57 257 3.0 9.0 0.00 0.00 0.00 85 1018.3
20260506232537 57 257 4.0 9.0 0.00 0.00 0.00 84 1018.3
20260506232037 57 296 3.0 10.0 0.00 0.00 0.00 85 1018.3
20260506231544 57 300 4.0 10.0 0.00 0.00 0.00 84 1018.3
20260506231037 58 267 3.0 8.0 0.00 0.00 0.00 84 1018.3
20260506230536 58 306 3.0 8.0 0.00 0.00 0.00 84 1018.3
20260506230050 58 336 2.0 9.0 0.00 0.00 0.00 84 1018.4
20260506225537 58 0 2.0 9.0 0.00 0.00 0.00 85 1018.4
20260506225037 57 255 4.0 9.0 0.00 0.00 0.00 85 1018.5
20260506224559 58 336 2.0 7.0 0.00 0.00 0.00 85 1018.5
20260506224037 58 282 3.0 8.0 0.00 0.00 0.00 85 1018.6
20260506223536 58 304 2.0 8.0 0.00 0.00 0.00 85 1018.5
20260506223044 58 315 3.0 10.0 0.00 0.00 0.00 85 1018.6
20260506222537 58 316 2.0 10.0 0.00 0.00 0.00 85 1018.6
20260506222037 57 288 3.0 11.0 0.00 0.00 0.00 85 1018.7
20260506221543 58 248 4.0 11.0 0.00 0.00 0.00 85 1018.7
20260506221036 58 277 4.0 9.0 0.00 0.00 0.00 85 1018.8
20260506220536 58 313 2.0 8.0 0.00 0.00 0.00 85 1018.9
20260506220045 58 294 2.0 10.0 0.00 0.00 0.00 85 1019.0
20260506215537 58 257 4.0 10.0 0.00 0.00 0.00 85 1019.0
20260506215036 58 271 4.0 8.0 0.00 0.00 0.00 83 1019.0
20260506214559 59 321 4.0 8.0 0.00 0.00 0.00 82 1018.9
20260506214037 59 322 3.0 8.0 0.00 0.00 0.00 83 1018.9
20260506213538 59 351 3.0 8.0 0.00 0.00 0.00 83 1018.9
20260506213042 59 267 3.0 8.0 0.00 0.00 0.00 82 1019.1
20260506212537 59 317 4.0 8.0 0.00 0.00 0.00 82 1019.1
20260506212037 59 360 2.0 8.0 0.00 0.00 0.00 83 1019.0
20260506211546 59 281 3.0 10.0 0.00 0.00 0.00 82 1019.0
20260506211036 59 284 2.0 10.0 0.00 0.00 0.00 84 1019.0
20260506210537 58 292 4.0 10.0 0.00 0.00 0.00 83 1018.9
20260506210044 58 292 3.0 9.0 0.00 0.00 0.00 84 1019.0
20260506205536 59 292 3.0 8.0 0.00 0.00 0.00 82 1019.1
20260506205036 60 293 2.0 8.0 0.00 0.00 0.00 84 1019.0
20260506204544 58 334 3.0 8.0 0.00 0.00 0.00 84 1019.2
20260506204038 59 308 2.0 7.0 0.00 0.00 0.00 82 1019.2
20260506203537 59 327 2.0 7.0 0.00 0.00 0.00 84 1019.3
20260506203047 59 307 3.0 7.0 0.00 0.00 0.00 83 1019.3
20260506202536 59 317 3.0 7.0 0.00 0.00 0.00 82 1019.3
20260506202037 60 281 2.0 8.0 0.00 0.00 0.00 82 1019.3
20260506201544 59 299 3.0 8.0 0.00 0.00 0.00 84 1019.4
20260506201037 59 284 2.0 6.0 0.00 0.00 0.00 83 1019.4
20260506200538 59 237 1.0 6.0 0.00 0.00 0.00 83 1019.5
20260506200048 59 281 2.0 6.0 0.00 0.00 0.00 82 1019.5
20260506195537 59 287 2.0 7.0 0.00 0.00 0.00 83 1019.5
20260506195037 60 313 2.0 7.0 0.00 0.00 0.00 83 1019.6
20260506194558 59 9 3.0 6.0 0.00 0.00 0.00 83 1019.6
20260506194044 60 319 2.0 6.0 0.00 0.00 0.00 81 1019.6
20260506193537 60 290 2.0 7.0 0.00 0.00 0.00 82 1019.7
20260506193043 59 319 2.0 7.0 0.00 0.00 0.00 82 1019.6
20260506192536 60 341 2.0 5.0 0.00 0.00 0.00 84 1019.6
20260506192036 59 319 2.0 6.0 0.00 0.00 0.00 82 1019.8
20260506191552 59 5 2.0 7.0 0.00 0.00 0.00 84 1019.8
20260506191036 59 290 2.0 7.0 0.00 0.00 0.00 83 1019.8
20260506190538 59 288 2.0 6.0 0.00 0.00 0.00 82 1019.9
20260506190044 59 243 2.0 6.0 0.00 0.00 0.00 80 1019.8
20260506185538 60 328 2.0 7.0 0.00 0.00 0.00 82 1019.8
20260506185038 59 237 2.0 7.0 0.00 0.00 0.00 83 1019.8
20260506184551 59 295 2.0 6.0 0.00 0.00 0.00 82 1019.7
20260506184038 59 267 2.0 6.0 0.00 0.00 0.00 83 1019.8
20260506183537 59 269 2.0 4.0 0.00 0.00 0.00 85 1019.9
20260506183047 58 284 2.0 4.0 0.00 0.00 0.00 84 1019.9
20260506182536 58 308 1.0 5.0 0.00 0.00 0.00 84 1020.0
20260506182036 58 246 2.0 5.0 0.00 0.00 0.00 83 1019.9
20260506181547 58 314 2.0 4.0 0.00 0.00 0.00 83 1019.9
20260506181037 58 292 2.0 5.0 0.00 0.00 0.00 83 1019.9
20260506180537 58 322 2.0 6.0 0.00 0.00 0.00 82 1019.8
20260506180054 59 283 2.0 6.0 0.00 0.00 0.00 81 1019.8
20260506175536 59 284 2.0 4.0 0.00 0.00 0.00 84 1019.7
20260506175033 58 246 1.0 4.0 0.00 0.00 0.00 83 1019.8
20260506174542 58 293 2.0 5.0 0.00 0.00 0.00 83 1019.7
20260506174033 58 252 2.0 5.0 0.00 0.00 0.00 82 1019.7
20260506173535 58 288 2.0 5.0 0.00 0.00 0.00 83 1019.7
20260506173048 58 281 2.0 6.0 0.00 0.00 0.00 83 1019.7
20260506172533 58 298 2.0 6.0 0.00 0.00 0.00 84 1019.7
20260506172033 58 278 2.0 6.0 0.00 0.00 0.00 83 1019.7
20260506171556 58 241 1.0 4.0 0.00 0.00 0.00 84 1019.7
20260506171040 58 298 2.0 4.0 0.00 0.00 0.00 84 1019.7
20260506170540 58 355 1.0 3.0 0.00 0.00 0.00 84 1019.8
20260506170049 58 293 1.0 4.0 0.00 0.00 0.00 85 1019.7
20260506165539 57 298 1.0 4.0 0.00 0.00 0.00 85 1019.7
20260506165037 57 340 1.0 6.0 0.00 0.00 0.00 85 1019.7
20260506164558 57 289 2.0 6.0 0.00 0.00 0.00 85 1019.7
20260506164036 57 263 1.0 4.0 0.00 0.00 0.00 85 1019.6
20260506163536 57 317 2.0 4.0 0.00 0.00 0.00 84 1019.7
20260506163054 57 346 1.0 6.0 0.00 0.00 0.00 84 1019.7
20260506162533 57 13 1.0 6.0 0.00 0.00 0.00 85 1019.7
20260506162033 57 293 1.0 4.0 0.00 0.00 0.00 85 1019.7
20260506161604 57 0 1.0 3.0 0.00 0.00 0.00 85 1019.7
20260506161033 57 0 2.0 4.0 0.00 0.00 0.00 85 1019.6
20260506160533 57 318 1.0 4.0 0.00 0.00 0.00 86 1019.7
20260506160052 57 338 1.0 3.0 0.00 0.00 0.00 86 1019.6
20260506155533 56 279 1.0 3.0 0.00 0.02 0.00 86 1019.7
20260506155036 57 346 0.0 3.0 0.00 0.02 0.00 85 1019.6
20260506154610 56 0 1.0 3.0 0.00 0.02 0.00 86 1019.6
20260506154033 56 295 0.0 3.0 0.00 0.02 0.00 86 1019.5
20260506153536 56 291 1.0 3.0 0.00 0.02 0.00 86 1019.5
20260506153045 56 36 1.0 3.0 0.00 0.02 0.00 86 1019.5
20260506152537 55 310 0.0 3.0 0.00 0.02 0.00 87 1019.5
20260506152039 55 276 1.0 3.0 0.00 0.02 0.00 87 1019.5
20260506151545 56 295 1.0 2.0 0.00 0.02 0.00 88 1019.5
20260506151038 55 331 0.0 2.0 0.00 0.02 0.00 88 1019.5
20260506150541 55 0 0.0 3.0 0.00 0.02 0.00 88 1019.5
20260506150053 55 0 0.0 3.0 0.00 0.02 0.00 88 1019.4
20260506145543 55 288 1.0 4.0 0.00 0.02 0.00 87 1019.4
20260506145039 55 0 0.0 4.0 0.00 0.02 0.00 87 1019.4
20260506144555 55 0 0.0 4.0 0.00 0.02 0.00 88 1019.4
20260506144038 55 0 0.0 2.0 0.00 0.02 0.00 88 1019.3
20260506143538 55 313 0.0 3.0 0.00 0.02 0.00 87 1019.3
20260506143041 55 306 0.0 3.0 0.00 0.02 0.00 88 1019.3
20260506142540 55 0 1.0 3.0 0.00 0.02 0.00 87 1019.3
20260506142038 55 59 0.0 3.0 0.00 0.02 0.00 88 1019.2
20260506141549 55 317 0.0 2.0 0.00 0.02 0.00 88 1019.2
20260506141038 55 5 0.0 3.0 0.00 0.02 0.00 88 1019.1
20260506140541 55 0 1.0 3.0 0.00 0.02 0.00 87 1019.0
20260506140057 55 5 0.0 3.0 0.00 0.02 0.00 87 1019.0
20260506135537 55 0 0.0 3.0 0.00 0.02 0.00 87 1018.9
20260506135037 55 0 1.0 3.0 0.00 0.02 0.00 87 1018.9
20260506134552 55 311 0.0 2.0 0.00 0.02 0.00 87 1018.8
20260506134038 55 336 0.0 2.0 0.00 0.02 0.00 86 1018.8
20260506133537 55 328 0.0 3.0 0.00 0.02 0.00 86 1018.8
20260506133054 56 29 0.0 3.0 0.00 0.02 0.00 86 1018.8
20260506132538 55 0 0.0 4.0 0.00 0.02 0.00 85 1018.7
20260506132042 55 290 0.0 4.0 0.00 0.02 0.00 84 1018.5
20260506131543 55 290 2.0 4.0 0.00 0.02 0.00 84 1018.6
20260506131039 55 318 0.0 2.0 0.00 0.02 0.00 84 1018.5
20260506130540 55 0 0.0 3.0 0.00 0.02 0.00 84 1018.4
20260506130050 55 273 1.0 3.0 0.00 0.02 0.00 84 1018.5
20260506125538 55 287 1.0 4.0 0.00 0.02 0.00 85 1018.5
20260506125039 55 336 1.0 5.0 0.00 0.02 0.00 84 1018.5
20260506124542 55 299 1.0 5.0 0.00 0.02 0.00 84 1018.4
20260506124039 55 345 1.0 5.0 0.00 0.02 0.00 84 1018.4